C/2014 U3 ( Kowalski )

Japanese version
Home page
Updated on March 15, 2015

---------------------------------------------------------------------

* Profile

Discovery Date October 26, 2014
Magnitude 19.6 mag
Discoverer R. A. Kowalski (Catalina Sky Survey)

* Pictures

* Orbital Elements

Epoch 2014 Sept. 20.0 TT = JDT 2456920.5
T 2014 Sept. 3.50879 TT                                 MPCW
q   2.5583883            (2000.0)            P               Q
z  +0.0012222      Peri.   51.30313     -0.40311984     +0.90609808
 +/-0.0001316      Node   163.57850     +0.63313073     +0.17484446
e   0.9968731      Incl.  152.99241     +0.66078732     +0.38524757
From 41 observations 2014 Oct. 26-Dec. 26, mean residual 0".6.

* Magnitudes Graph

        m1 = 13.0 + 5 log d + 10.0 log r

---------------------------------------------------------------------

The orbital elements are published on M.P.E.C. 2015-A04.
The magnitudes graphs are made with Comet for Windows.

---------------------------------------------------------------------

Copyright(C) Seiichi Yoshida (comet@aerith.net). All rights reserved.